Wind_Speed
48 49 48 46 36 35 35 34 36 36 35 36 39 40 39 37 35 33 30 28 28 29 29 29 26 25 27 29 29 30 32 34 33 37 39 38 39 40 39 41 43 46 48
44 40 28 34 28 29 27 27 26 26 28 29 31 30 27 23 21 23 24 25 26 26 28 27 27 26 27 29 31 32 33 34 35 38 41 42 40 38 34 31 31 34 33
26 28 26 25 23 20 17 15 19 23 21 20 19 18 17 17 18 19 21 23 22 21 26 28 29 31 32 33 35 35 36 36 38 38 36 36 37 34 31 30 27 30 35
22 21 20 18 15 11 11 14 17 19 19 21 21 23 24 24 24 26 27 27 27 29 31 33 34 36 37 39 40 39 39 37 37 39 39 39 34 30 29 29 30 27 21
18 16 14 10 8 8 12 16 19 20 20 21 22 23 24 26 27 27 28 29 29 29 30 32 35 34 36 37 37 39 38 37 36 36 33 31 28 27 25 25 23 21 19
11 9 7 10 11 11 14 18 19 19 19 21 23 25 26 28 29 28 29 30 31 31 31 31 32 32 32 32 30 31 33 33 34 32 29 30 27 24 27 28 29 25 22
4 3 7 11 11 13 14 16 15 18 22 24 26 28 29 30 30 31 32 31 31 31 30 30 30 29 27 26 25 24 24 23 22 23 22 22 23 22 22 22 19 18 18
2 5 11 11 9 10 11 14 19 22 24 26 28 29 31 32 33 33 33 35 35 32 30 29 27 27 27 26 25 25 23 22 22 21 20 19 17 16 14 14 14 16 14
2 8 10 7 7 8 12 17 20 24 26 29 31 32 33 34 35 36 37 37 33 31 28 28 27 26 24 23 23 23 23 21 20 21 19 19 19 19 16 16 15 15 13
6 7 7 6 8 12 16 20 24 27 29 31 32 33 33 34 36 36 35 33 30 26 26 27 26 25 24 24 23 22 22 21 20 19 18 17 17 17 18 17 17 15 15
5 4 6 8 11 16 19 23 26 28 30 31 31 31 31 33 35 34 32 30 28 28 28 27 27 26 26 24 24 21 20 19 19 19 18 18 17 17 16 16 16 15 14
2 4 8 12 15 18 21 24 27 29 29 29 29 31 33 34 34 34 33 31 30 29 27 27 27 26 26 25 23 21 20 19 19 18 18 18 18 18 17 16 15 14 13
4 8 11 13 17 20 24 26 28 29 29 30 32 33 34 34 34 34 32 31 30 28 27 26 26 25 23 22 21 20 20 18 19 20 20 21 21 20 20 19 16 14 13
7 9 13 17 20 23 25 27 29 29 29 31 32 33 35 36 36 35 32 32 31 30 27 26 25 25 26 25 24 23 22 22 21 21 22 22 22 22 21 19 18 16 13
8 12 15 18 21 24 26 27 28 28 29 31 33 35 36 36 34 33 34 33 30 28 27 27 27 27 27 27 27 26 25 24 23 23 24 23 22 21 20 18 17 15 14
11 14 16 19 22 24 26 27 27 29 30 32 34 36 36 36 35 36 36 34 32 31 28 28 27 27 27 27 28 28 27 25 25 25 24 22 19 16 15 14 12 12 11
12 13 17 21 24 28 29 28 29 32 34 34 36 36 35 35 36 37 37 35 33 31 30 30 30 29 28 28 29 29 28 27 27 24 20 17 14 12 11 11 9 8 7
12 15 19 20 26 31 31 30 31 32 33 33 35 36 36 37 38 38 37 36 34 34 33 32 30 29 28 28 27 29 28 27 23 21 17 14 11 10 9 9 6 4 4
13 16 18 22 27 32 33 31 32 33 36 36 37 38 37 38 38 38 38 38 37 35 34 33 31 29 28 27 26 28 28 25 22 18 15 13 10 8 9 6 3 1 3
16 18 20 23 27 32 33 33 33 34 35 37 39 39 39 39 40 41 41 39 37 35 33 32 30 29 27 25 24 26 25 22 16 16 16 14 11 9 6 4 2 2 3
18 20 23 24 27 33 35 34 34 35 38 40 39 40 40 40 43 43 41 39 36 34 32 31 29 27 25 24 24 25 23 16 15 17 17 16 15 12 10 8 7 6 6
19 23 24 26 28 34 36 35 34 36 39 41 43 44 44 44 44 42 40 38 36 33 31 30 28 25 24 23 23 22 20 13 14 15 15 17 15 14 12 12 11 9 9
22 23 26 29 30 33 36 34 34 38 40 43 45 47 46 45 43 41 40 37 34 32 30 28 26 24 23 22 21 19 16 12 12 14 17 18 15 13 10 10 11 11 15
23 26 28 30 32 34 37 37 37 39 42 45 47 49 47 44 43 41 39 37 35 32 29 26 24 23 22 19 19 17 13 11 13 15 17 17 17 17 15 13 14 15 17
25 28 30 32 34 34 38 39 39 41 45 48 51 48 44 43 42 40 39 38 35 31 27 24 22 20 20 18 18 15 11 11 12 14 16 16 18 16 16 16 16 15 17
27 29 31 34 35 36 39 39 39 42 46 50 51 47 45 43 41 42 39 34 31 29 28 24 21 19 18 16 16 13 10 11 12 14 16 17 17 18 16 16 17 20 20
Wind_Direction
294 296 297 298 302 302 303 303 304 308 313 316 314 310 307 305 304 304 304 305 304 303 304 303 300 296 291 294 301 301 298 300 305 304 300 300 305 306 292 282 270 272 271
295 298 301 305 305 307 309 312 317 319 323 322 323 322 319 322 321 316 312 310 308 305 300 304 295 296 295 295 294 295 298 302 305 302 296 299 300 304 300 298 288 279 276
303 306 303 304 307 310 319 332 340 341 342 346 348 348 346 345 340 334 330 326 322 312 306 305 303 299 297 295 295 296 298 299 300 300 298 303 307 303 301 309 295 289 278
304 303 305 309 314 332 343 342 342 341 343 342 342 342 338 334 329 325 321 317 312 307 304 303 302 301 298 296 294 292 293 297 301 305 306 301 298 303 302 301 305 299 287
302 308 317 325 324 321 323 329 335 337 336 335 334 332 329 326 324 323 321 321 319 315 311 307 308 307 304 306 301 292 292 296 300 304 305 310 297 297 303 308 311 303 293
312 318 320 315 315 304 308 316 326 332 333 335 335 333 330 327 325 323 320 321 321 319 318 315 314 315 314 314 316 310 301 297 299 301 299 302 304 297 297 299 304 296 283
316 338 327 315 311 315 322 329 340 342 337 334 333 331 330 330 328 325 323 321 322 322 321 321 320 320 318 320 321 324 324 321 320 316 314 310 305 303 302 303 306 300 300
156 324 332 322 315 323 335 346 341 335 334 332 331 331 330 328 327 325 325 325 326 326 325 322 322 320 319 320 319 319 322 324 322 328 329 329 326 317 308 314 322 308 302
352 345 338 347 5 1 345 339 337 335 333 333 333 331 330 327 327 327 328 330 333 328 325 323 320 319 320 320 322 323 323 324 318 316 313 314 315 319 323 324 325 336 306
345 343 351 1 354 343 339 338 336 335 335 334 333 332 331 331 331 332 335 336 334 332 331 325 324 323 326 326 325 324 325 326 324 322 321 316 310 306 308 308 312 314 327
342 314 340 341 339 340 337 338 336 335 335 336 336 335 333 334 337 340 341 342 341 337 332 330 329 329 328 325 325 326 325 327 334 331 330 329 326 320 314 307 301 300 304
290 323 334 338 340 339 339 338 336 337 338 338 339 340 340 341 342 342 342 343 341 340 336 334 332 331 328 324 323 323 327 330 331 334 332 331 330 328 324 316 306 299 291
346 341 339 340 342 341 340 340 340 342 344 345 346 345 345 345 345 344 347 349 348 345 343 339 337 331 327 327 326 324 323 321 326 325 324 324 320 317 316 312 308 297 289
348 343 345 347 345 344 345 345 345 347 348 346 347 347 348 347 348 350 353 353 353 350 348 346 342 342 343 342 339 335 330 324 321 320 319 316 314 313 310 303 299 295 286
347 351 352 353 353 352 349 348 349 350 349 348 350 349 350 350 352 353 354 352 349 348 349 347 346 348 347 346 345 342 337 332 324 321 318 315 311 309 306 300 293 283 278
355 1 1 360 359 354 352 352 351 350 350 350 350 350 352 352 352 351 351 351 350 347 346 344 345 345 346 346 345 344 340 336 330 325 320 316 312 310 305 303 298 284 270
1 3 6 7 5 359 358 354 351 349 349 349 350 351 352 350 349 348 349 349 347 346 346 344 340 339 339 340 343 344 342 338 335 332 329 325 318 315 312 311 304 285 261
4 10 11 11 10 5 358 353 350 349 350 352 350 349 348 347 347 347 347 347 344 343 343 342 339 335 336 338 340 343 343 343 341 340 338 334 329 325 323 320 314 287 239
20 15 11 10 9 5 356 352 350 350 350 349 349 347 346 345 344 345 345 344 343 343 342 343 341 339 338 339 342 345 347 349 351 355 360 357 348 339 334 330 328 257 193
19 12 6 4 2 2 359 353 351 350 350 350 348 346 345 345 347 344 344 345 345 345 345 346 345 344 345 344 346 350 352 358 7 13 10 4 8 12 25 31 45 124 155
19 9 3 1 0 1 359 354 351 350 350 349 349 347 346 346 343 344 346 347 348 349 348 349 350 351 352 352 352 354 357 11 20 17 21 38 41 42 47 59 73 90 116
9 4 2 0 360 358 357 355 350 350 352 350 349 349 346 345 345 345 347 348 349 350 350 351 353 354 355 355 357 358 9 23 24 28 31 28 34 44 59 67 70 85 112
4 2 1 360 358 356 356 353 352 352 352 351 349 348 346 345 346 347 347 349 350 352 352 352 355 355 356 357 1 6 26 39 34 31 22 25 41 44 50 59 75 89 112
353 353 357 357 355 352 353 351 351 352 353 352 350 348 346 346 347 347 348 348 349 349 350 351 355 357 359 3 6 16 43 45 38 33 37 44 40 40 49 65 85 101 109
344 349 352 351 352 350 350 350 350 352 351 351 350 348 347 347 347 348 348 348 349 351 351 351 354 359 3 8 13 24 52 51 44 44 41 35 35 45 67 79 88 98 111
340 343 346 348 348 349 349 348 349 349 349 349 349 349 348 348 347 348 349 352 354 360 360 357 355 3 6 12 18 29 59 61 53 51 41 40 50 59 76 86 90 108 111
Height
5739 5736 5732 5728 5723 5720 5717 5712 5708 5702 5696 5691 5685 5679 5674 5669 5665 5661 5658 5654 5651 5647 5644 5640 5636 5632 5629 5625 5623 5618 5615 5612 5608 5602 5596 5590 5584 5575 5568 5564 5564 5564 5566
5730 5727 5723 5720 5716 5713 5710 5706 5702 5697 5691 5686 5680 5674 5669 5664 5660 5656 5653 5649 5646 5642 5639 5634 5630 5626 5623 5619 5615 5610 5606 5602 5598 5593 5587 5581 5575 5569 5562 5557 5554 5553 5552
5723 5720 5717 5715 5712 5710 5707 5703 5698 5693 5688 5684 5679 5674 5669 5664 5659 5654 5650 5646 5642 5638 5634 5629 5624 5620 5616 5611 5607 5602 5598 5593 5589 5584 5578 5572 5566 5561 5557 5551 5547 5545 5542
5717 5715 5713 5711 5708 5706 5703 5700 5696 5692 5687 5683 5678 5673 5667 5662 5657 5652 5648 5643 5639 5634 5629 5623 5618 5614 5609 5603 5598 5593 5589 5585 5579 5574 5568 5562 5559 5554 5549 5546 5542 5538 5535
5713 5711 5709 5708 5706 5704 5701 5698 5694 5690 5685 5681 5676 5670 5665 5660 5655 5649 5644 5638 5633 5627 5622 5617 5611 5605 5600 5594 5588 5583 5579 5575 5570 5565 5560 5555 5550 5547 5542 5538 5536 5533 5530
5709 5708 5708 5707 5704 5702 5699 5696 5692 5687 5683 5678 5673 5668 5663 5657 5651 5645 5639 5633 5627 5620 5615 5609 5603 5597 5591 5585 5580 5574 5569 5565 5561 5557 5553 5549 5545 5542 5537 5534 5531 5529 5527
5708 5707 5707 5704 5702 5700 5697 5694 5690 5686 5681 5676 5670 5665 5659 5652 5646 5640 5633 5627 5621 5614 5608 5602 5596 5590 5585 5580 5575 5570 5564 5559 5554 5550 5546 5543 5539 5536 5533 5529 5526 5524 5522
5707 5706 5705 5702 5699 5698 5696 5692 5689 5684 5679 5673 5667 5661 5654 5648 5642 5635 5629 5622 5615 5609 5603 5597 5591 5586 5580 5575 5570 5565 5560 5555 5550 5547 5543 5540 5536 5532 5529 5526 5524 5521 5519
5706 5706 5704 5702 5699 5697 5694 5691 5686 5681 5676 5670 5664 5657 5651 5644 5637 5630 5623 5617 5610 5603 5598 5593 5587 5581 5576 5571 5565 5560 5555 5552 5547 5543 5539 5536 5532 5529 5526 5523 5521 5519 5516
5707 5706 5704 5702 5699 5696 5693 5688 5684 5679 5673 5667 5660 5654 5646 5640 5633 5626 5620 5613 5607 5602 5596 5589 5583 5577 5572 5567 5562 5557 5552 5547 5543 5539 5535 5532 5528 5525 5522 5520 5518 5517 5515
5707 5706 5704 5702 5698 5695 5691 5687 5682 5677 5671 5664 5658 5652 5645 5638 5630 5623 5616 5609 5603 5597 5591 5584 5578 5572 5567 5563 5558 5553 5548 5544 5539 5535 5531 5528 5524 5521 5519 5516 5514 5514 5513
5707 5705 5703 5701 5698 5694 5690 5686 5681 5675 5669 5662 5656 5649 5641 5634 5627 5620 5613 5606 5599 5592 5586 5580 5574 5568 5563 5558 5553 5549 5544 5540 5536 5532 5528 5525 5522 5519 5516 5513 5511 5510 5509
5707 5706 5703 5701 5697 5693 5689 5684 5678 5672 5666 5659 5652 5645 5639 5631 5624 5617 5609 5602 5595 5589 5583 5577 5571 5566 5561 5555 5550 5545 5540 5536 5532 5528 5524 5520 5517 5515 5512 5509 5508 5506 5505
5708 5706 5703 5700 5697 5692 5687 5682 5676 5670 5663 5657 5650 5643 5636 5628 5620 5613 5606 5599 5592 5586 5580 5575 5569 5563 5557 5551 5545 5540 5535 5531 5527 5522 5518 5515 5512 5509 5507 5505 5503 5502 5502
5708 5706 5703 5700 5695 5690 5685 5680 5674 5668 5661 5654 5647 5640 5633 5625 5618 5611 5604 5597 5591 5585 5578 5572 5566 5560 5554 5548 5542 5536 5531 5526 5522 5517 5513 5509 5506 5503 5500 5499 5498 5497 5497
5708 5706 5702 5698 5694 5689 5683 5678 5672 5666 5659 5652 5646 5638 5631 5623 5616 5609 5602 5595 5588 5582 5576 5570 5563 5557 5551 5545 5539 5533 5527 5522 5517 5512 5507 5503 5500 5498 5495 5494 5493 5492 5493
5708 5705 5702 5698 5693 5688 5682 5677 5670 5663 5656 5650 5643 5636 5629 5622 5615 5608 5600 5593 5586 5580 5573 5566 5560 5554 5548 5542 5535 5529 5523 5517 5512 5506 5502 5499 5496 5494 5492 5490 5489 5489 5489
5708 5705 5702 5697 5692 5686 5681 5675 5669 5662 5657 5650 5642 5635 5627 5620 5612 5605 5598 5590 5584 5576 5570 5563 5556 5549 5543 5538 5532 5526 5520 5514 5508 5503 5499 5496 5493 5491 5489 5488 5487 5486 5487
5709 5705 5701 5696 5691 5686 5680 5674 5667 5661 5654 5647 5640 5633 5626 5619 5611 5603 5595 5588 5580 5573 5566 5559 5552 5545 5539 5534 5529 5523 5517 5511 5505 5501 5497 5494 5492 5489 5488 5486 5485 5485 5486
5708 5705 5700 5696 5691 5686 5678 5672 5665 5659 5653 5646 5638 5631 5623 5615 5607 5599 5591 5583 5576 5569 5562 5555 5549 5542 5536 5531 5526 5521 5515 5510 5506 5502 5498 5494 5491 5489 5487 5486 5486 5485 5486
5708 5704 5700 5695 5690 5684 5677 5670 5664 5657 5651 5643 5637 5628 5620 5612 5604 5596 5587 5580 5572 5565 5559 5552 5546 5540 5535 5530 5525 5519 5514 5510 5507 5504 5500 5496 5493 5491 5489 5488 5487 5487 5488
5707 5703 5699 5693 5688 5682 5675 5668 5662 5656 5649 5641 5632 5625 5617 5608 5600 5592 5584 5577 5569 5563 5556 5550 5544 5539 5534 5529 5525 5519 5515 5512 5509 5506 5503 5501 5498 5495 5493 5492 5491 5490 5490
5706 5702 5697 5692 5686 5681 5674 5667 5660 5654 5646 5639 5631 5622 5614 5605 5597 5589 5581 5574 5567 5561 5554 5548 5543 5538 5533 5528 5524 5520 5516 5514 5512 5509 5506 5503 5500 5498 5496 5495 5494 5494 5495
5706 5701 5695 5690 5685 5678 5672 5665 5659 5651 5644 5637 5628 5619 5610 5601 5593 5585 5578 5571 5565 5558 5553 5547 5542 5537 5533 5529 5525 5521 5519 5517 5515 5513 5510 5507 5504 5502 5500 5498 5498 5499 5500
5704 5698 5694 5689 5683 5677 5670 5663 5656 5649 5641 5633 5624 5616 5607 5599 5590 5583 5576 5568 5561 5556 5550 5546 5541 5537 5533 5530 5526 5523 5521 5520 5518 5516 5514 5511 5508 5506 5504 5504 5504 5505 5506
5702 5698 5693 5688 5681 5675 5668 5661 5654 5647 5639 5631 5622 5612 5603 5595 5588 5579 5572 5566 5560 5555 5549 5545 5541 5537 5534 5531 5528 5526 5524 5523 5522 5520 5518 5515 5513 5511 5509 5510 5510 5512 5514